contact:dominique.lefevre@mio.osupytheas.fr, maurice.libes@osupytheas.fr, didier.mallarino@osupytheas.fr
Project:EMSO http://www.emso-fr.org/EMSO-France
Depth: 2436.0 m
Title:EMSO Ligure Ouest : Data MII capteur MICROCAT
DateTime_Computer,Latitude,Longitude,Temperature,Conductivity,Pressure,DateTime_Instrument
DateTime_Computer,Latitude,Longitude,degC,S m-1,dbar,DateTime_Instrument
2021-10-16T00:00:27Z,42.805,6.029,13.2991,4.60002,2470.357,2021-10-16T02:01:51Z
2021-10-16T00:03:31Z,42.805,6.029,13.2991,4.60003,2470.357,2021-10-16T02:04:54Z
2021-10-16T00:06:34Z,42.805,6.029,13.2988,4.60002,2470.366,2021-10-16T02:07:57Z
2021-10-16T00:09:37Z,42.805,6.029,13.2988,4.60003,2470.343,2021-10-16T02:11:00Z
2021-10-16T00:12:40Z,42.805,6.029,13.2987,4.60002,2470.343,2021-10-16T02:14:03Z
2021-10-16T00:15:43Z,42.805,6.029,13.2986,4.60008,2470.38,2021-10-16T02:17:07Z
2021-10-16T00:18:46Z,42.805,6.029,13.2988,4.60004,2470.343,2021-10-16T02:20:10Z
2021-10-16T00:21:49Z,42.805,6.029,13.2987,4.60008,2470.366,2021-10-16T02:23:13Z
2021-10-16T00:24:52Z,42.805,6.029,13.2990,4.60003,2470.366,2021-10-16T02:26:16Z
2021-10-16T00:27:56Z,42.805,6.029,13.2983,4.60007,2470.343,2021-10-16T02:29:19Z
2021-10-16T00:30:59Z,42.805,6.029,13.2990,4.60009,2470.366,2021-10-16T02:32:22Z
2021-10-16T00:34:02Z,42.805,6.029,13.2987,4.60010,2470.343,2021-10-16T02:35:25Z
2021-10-16T00:37:05Z,42.805,6.029,13.2990,4.60004,2470.366,2021-10-16T02:38:28Z
2021-10-16T00:40:08Z,42.805,6.029,13.2987,4.60004,2470.343,2021-10-16T02:41:32Z
2021-10-16T00:43:11Z,42.805,6.029,13.2993,4.60005,2470.404,2021-10-16T02:44:35Z
2021-10-16T00:46:14Z,42.805,6.029,13.2997,4.60004,2470.366,2021-10-16T02:47:38Z
2021-10-16T00:49:17Z,42.805,6.029,13.2987,4.60006,2470.38,2021-10-16T02:50:41Z
2021-10-16T00:52:21Z,42.805,6.029,13.2998,4.60006,2470.366,2021-10-16T02:53:44Z
2021-10-16T00:55:24Z,42.805,6.029,13.2986,4.60011,2470.38,2021-10-16T02:56:47Z
2021-10-16T00:58:27Z,42.805,6.029,13.2991,4.60006,2470.39,2021-10-16T02:59:50Z
2021-10-16T01:01:30Z,42.805,6.029,13.2988,4.60011,2470.366,2021-10-16T03:02:53Z
2021-10-16T01:04:33Z,42.805,6.029,13.2986,4.60009,2470.366,2021-10-16T03:05:57Z
2021-10-16T01:07:36Z,42.805,6.029,13.2990,4.60009,2470.39,2021-10-16T03:09:00Z
2021-10-16T01:10:39Z,42.805,6.029,13.2990,4.60017,2470.38,2021-10-16T03:12:03Z
2021-10-16T01:13:42Z,42.805,6.029,13.2986,4.60005,2470.39,2021-10-16T03:15:06Z
2021-10-16T01:16:46Z,42.805,6.029,13.2989,4.60004,2470.38,2021-10-16T03:18:09Z
2021-10-16T01:19:49Z,42.805,6.029,13.2986,4.60003,2470.38,2021-10-16T03:21:12Z
2021-10-16T01:22:52Z,42.805,6.029,13.2986,4.60004,2470.38,2021-10-16T03:24:15Z
2021-10-16T01:25:55Z,42.805,6.029,13.2987,4.60004,2470.39,2021-10-16T03:27:18Z
2021-10-16T01:28:58Z,42.805,6.029,13.2986,4.60004,2470.39,2021-10-16T03:30:22Z
2021-10-16T01:32:01Z,42.805,6.029,13.2986,4.60003,2470.404,2021-10-16T03:33:25Z
2021-10-16T01:35:04Z,42.805,6.029,13.2993,4.60011,2470.404,2021-10-16T03:36:28Z
2021-10-16T01:38:07Z,42.805,6.029,13.2989,4.60014,2470.39,2021-10-16T03:39:31Z
2021-10-16T01:41:11Z,42.805,6.029,13.2988,4.60012,2470.404,2021-10-16T03:42:34Z
2021-10-16T01:44:14Z,42.805,6.029,13.2987,4.60004,2470.39,2021-10-16T03:45:37Z
2021-10-16T01:47:17Z,42.805,6.029,13.2988,4.60003,2470.366,2021-10-16T03:48:40Z
2021-10-16T01:50:20Z,42.805,6.029,13.2988,4.60005,2470.366,2021-10-16T03:51:43Z
2021-10-16T01:53:23Z,42.805,6.029,13.2988,4.60004,2470.404,2021-10-16T03:54:47Z
2021-10-16T01:56:26Z,42.805,6.029,13.2989,4.60004,2470.427,2021-10-16T03:57:50Z
2021-10-16T01:59:29Z,42.805,6.029,13.2991,4.60004,2470.404,2021-10-16T04:00:53Z
2021-10-16T02:02:32Z,42.805,6.029,13.2989,4.60003,2470.366,2021-10-16T04:03:56Z
2021-10-16T02:05:36Z,42.805,6.029,13.2988,4.60007,2470.404,2021-10-16T04:06:59Z
2021-10-16T02:08:39Z,42.805,6.029,13.2988,4.60005,2470.427,2021-10-16T04:10:02Z
2021-10-16T02:11:42Z,42.805,6.029,13.2987,4.60008,2470.39,2021-10-16T04:13:05Z
2021-10-16T02:14:45Z,42.805,6.029,13.2989,4.60004,2470.427,2021-10-16T04:16:08Z
2021-10-16T02:17:48Z,42.805,6.029,13.2985,4.60004,2470.437,2021-10-16T04:19:12Z
2021-10-16T02:20:51Z,42.805,6.029,13.2987,4.60005,2470.366,2021-10-16T04:22:15Z
2021-10-16T02:23:54Z,42.805,6.029,13.2988,4.60006,2470.39,2021-10-16T04:25:18Z
2021-10-16T02:26:57Z,42.805,6.029,13.2988,4.60016,2470.427,2021-10-16T04:28:21Z
2021-10-16T02:30:01Z,42.805,6.029,13.2990,4.60012,2470.413,2021-10-16T04:31:24Z
2021-10-16T02:33:04Z,42.805,6.029,13.2989,4.60006,2470.427,2021-10-16T04:34:27Z
2021-10-16T02:36:07Z,42.805,6.029,13.2989,4.60006,2470.413,2021-10-16T04:37:30Z
2021-10-16T02:39:10Z,42.805,6.029,13.2986,4.60004,2470.45,2021-10-16T04:40:33Z
2021-10-16T02:42:13Z,42.805,6.029,13.2988,4.60005,2470.427,2021-10-16T04:43:37Z
2021-10-16T02:45:16Z,42.805,6.029,13.2989,4.60005,2470.437,2021-10-16T04:46:40Z
2021-10-16T02:48:19Z,42.805,6.029,13.2990,4.60008,2470.413,2021-10-16T04:49:43Z
2021-10-16T02:51:22Z,42.805,6.029,13.2984,4.60006,2470.45,2021-10-16T04:52:46Z
2021-10-16T02:54:26Z,42.805,6.029,13.2986,4.60004,2470.39,2021-10-16T04:55:49Z
2021-10-16T02:57:29Z,42.805,6.029,13.2986,4.60005,2470.45,2021-10-16T04:58:52Z
2021-10-16T03:00:32Z,42.805,6.029,13.2986,4.60005,2470.437,2021-10-16T05:01:55Z
2021-10-16T03:03:35Z,42.805,6.029,13.2989,4.60009,2470.427,2021-10-16T05:04:58Z
2021-10-16T03:06:38Z,42.805,6.029,13.2984,4.60006,2470.413,2021-10-16T05:08:02Z
2021-10-16T03:09:41Z,42.805,6.029,13.2990,4.60005,2470.413,2021-10-16T05:11:05Z
2021-10-16T03:12:44Z,42.805,6.029,13.2996,4.60009,2470.437,2021-10-16T05:14:08Z
2021-10-16T03:15:47Z,42.805,6.029,13.2991,4.60007,2470.437,2021-10-16T05:17:11Z
2021-10-16T03:18:50Z,42.805,6.029,13.2992,4.60003,2470.45,2021-10-16T05:20:14Z
2021-10-16T03:21:54Z,42.805,6.029,13.2988,4.60005,2470.413,2021-10-16T05:23:17Z
2021-10-16T03:24:57Z,42.805,6.029,13.2988,4.60003,2470.427,2021-10-16T05:26:20Z
2021-10-16T03:28:00Z,42.805,6.029,13.2990,4.60003,2470.413,2021-10-16T05:29:23Z
2021-10-16T03:31:03Z,42.805,6.029,13.2990,4.60004,2470.45,2021-10-16T05:32:27Z
2021-10-16T03:34:06Z,42.805,6.029,13.2991,4.60006,2470.437,2021-10-16T05:35:30Z
2021-10-16T03:37:09Z,42.805,6.029,13.2988,4.60003,2470.437,2021-10-16T05:38:33Z
2021-10-16T03:40:12Z,42.805,6.029,13.2990,4.60003,2470.45,2021-10-16T05:41:36Z
2021-10-16T03:43:15Z,42.805,6.029,13.2990,4.60003,2470.474,2021-10-16T05:44:39Z
2021-10-16T03:46:19Z,42.805,6.029,13.2982,4.60004,2470.46,2021-10-16T05:47:42Z
2021-10-16T03:49:22Z,42.805,6.029,13.2991,4.60004,2470.427,2021-10-16T05:50:45Z
2021-10-16T03:52:25Z,42.805,6.029,13.2984,4.60004,2470.437,2021-10-16T05:53:48Z
2021-10-16T03:55:28Z,42.805,6.029,13.2991,4.60006,2470.46,2021-10-16T05:56:51Z
2021-10-16T03:58:31Z,42.805,6.029,13.2991,4.60005,2470.45,2021-10-16T05:59:55Z
2021-10-16T04:01:34Z,42.805,6.029,13.2990,4.60008,2470.46,2021-10-16T06:02:58Z
2021-10-16T04:04:37Z,42.805,6.029,13.2991,4.60004,2470.46,2021-10-16T06:06:01Z
2021-10-16T04:07:40Z,42.805,6.029,13.2986,4.60004,2470.437,2021-10-16T06:09:04Z
2021-10-16T04:10:44Z,42.805,6.029,13.2988,4.60007,2470.413,2021-10-16T06:12:07Z
2021-10-16T04:13:47Z,42.805,6.029,13.2987,4.60011,2470.413,2021-10-16T06:15:10Z
2021-10-16T04:16:50Z,42.805,6.029,13.2988,4.60011,2470.483,2021-10-16T06:18:13Z
2021-10-16T04:19:53Z,42.805,6.029,13.2986,4.60010,2470.437,2021-10-16T06:21:16Z
2021-10-16T04:22:56Z,42.805,6.029,13.2987,4.60014,2470.46,2021-10-16T06:24:20Z
2021-10-16T04:25:59Z,42.805,6.029,13.2993,4.60041,2470.437,2021-10-16T06:27:23Z
2021-10-16T04:29:02Z,42.805,6.029,13.2991,4.60008,2470.437,2021-10-16T06:30:26Z
2021-10-16T04:32:05Z,42.805,6.029,13.2996,4.60008,2470.423,2021-10-16T06:33:29Z
2021-10-16T04:35:09Z,42.805,6.029,13.2991,4.60008,2470.497,2021-10-16T06:36:32Z
2021-10-16T04:38:12Z,42.805,6.029,13.2990,4.60009,2470.474,2021-10-16T06:39:35Z
2021-10-16T04:41:15Z,42.805,6.029,13.2989,4.60016,2470.437,2021-10-16T06:42:38Z
2021-10-16T04:44:18Z,42.805,6.029,13.2990,4.60016,2470.45,2021-10-16T06:45:41Z
2021-10-16T04:47:21Z,42.805,6.029,13.2988,4.60008,2470.437,2021-10-16T06:48:45Z
2021-10-16T04:50:24Z,42.805,6.029,13.2995,4.60009,2470.474,2021-10-16T06:51:48Z
2021-10-16T04:53:27Z,42.805,6.029,13.2996,4.60006,2470.413,2021-10-16T06:54:51Z
2021-10-16T04:56:30Z,42.805,6.029,13.2995,4.60008,2470.46,2021-10-16T06:57:54Z
2021-10-16T04:59:34Z,42.805,6.029,13.3002,4.60014,2470.427,2021-10-16T07:00:57Z
2021-10-16T05:02:37Z,42.805,6.029,13.2994,4.60014,2470.474,2021-10-16T07:04:00Z
2021-10-16T05:05:40Z,42.805,6.029,13.2993,4.60011,2470.45,2021-10-16T07:07:03Z
2021-10-16T05:08:43Z,42.805,6.029,13.2991,4.60010,2470.474,2021-10-16T07:10:06Z
2021-10-16T05:11:46Z,42.805,6.029,13.2990,4.60011,2470.474,2021-10-16T07:13:10Z
2021-10-16T05:14:49Z,42.805,6.029,13.2990,4.60010,2470.497,2021-10-16T07:16:13Z
2021-10-16T05:17:52Z,42.805,6.029,13.2986,4.60010,2470.474,2021-10-16T07:19:16Z
2021-10-16T05:20:55Z,42.805,6.029,13.2991,4.60013,2470.474,2021-10-16T07:22:19Z
2021-10-16T05:23:58Z,42.805,6.029,13.2988,4.60017,2470.413,2021-10-16T07:25:22Z
2021-10-16T05:27:02Z,42.805,6.029,13.2995,4.60010,2470.45,2021-10-16T07:28:25Z
2021-10-16T05:30:05Z,42.805,6.029,13.2991,4.60009,2470.483,2021-10-16T07:31:28Z
2021-10-16T05:33:08Z,42.805,6.029,13.2988,4.60007,2470.437,2021-10-16T07:34:31Z
2021-10-16T05:36:11Z,42.805,6.029,13.2990,4.60009,2470.437,2021-10-16T07:37:34Z
2021-10-16T05:39:14Z,42.805,6.029,13.2993,4.60009,2470.427,2021-10-16T07:40:38Z
2021-10-16T05:42:17Z,42.805,6.029,13.2990,4.60007,2470.46,2021-10-16T07:43:41Z
2021-10-16T05:45:20Z,42.805,6.029,13.2990,4.60010,2470.437,2021-10-16T07:46:44Z
2021-10-16T05:48:23Z,42.805,6.029,13.2990,4.60011,2470.483,2021-10-16T07:49:47Z
2021-10-16T05:51:27Z,42.805,6.029,13.2987,4.60007,2470.437,2021-10-16T07:52:50Z
2021-10-16T05:54:30Z,42.805,6.029,13.2992,4.60007,2470.46,2021-10-16T07:55:53Z
2021-10-16T05:57:33Z,42.805,6.029,13.2996,4.60011,2470.46,2021-10-16T07:58:56Z
2021-10-16T06:00:36Z,42.805,6.029,13.2993,4.60007,2470.474,2021-10-16T08:01:59Z
2021-10-16T06:03:39Z,42.805,6.029,13.2991,4.60009,2470.437,2021-10-16T08:05:03Z
2021-10-16T06:06:42Z,42.805,6.029,13.2987,4.60010,2470.474,2021-10-16T08:08:06Z
2021-10-16T06:09:45Z,42.805,6.029,13.2991,4.60009,2470.413,2021-10-16T08:11:09Z
2021-10-16T06:12:48Z,42.805,6.029,13.2988,4.60009,2470.437,2021-10-16T08:14:12Z
2021-10-16T06:15:52Z,42.805,6.029,13.2989,4.60007,2470.45,2021-10-16T08:17:15Z
2021-10-16T06:18:55Z,42.805,6.029,13.2988,4.60009,2470.437,2021-10-16T08:20:18Z
2021-10-16T06:21:58Z,42.805,6.029,13.2991,4.60013,2470.413,2021-10-16T08:23:21Z
2021-10-16T06:25:01Z,42.805,6.029,13.2991,4.60016,2470.46,2021-10-16T08:26:24Z
2021-10-16T06:28:04Z,42.805,6.029,13.2990,4.60014,2470.437,2021-10-16T08:29:28Z
2021-10-16T06:31:07Z,42.805,6.029,13.2991,4.60010,2470.45,2021-10-16T08:32:31Z
2021-10-16T06:34:10Z,42.805,6.029,13.2990,4.60010,2470.474,2021-10-16T08:35:34Z
2021-10-16T06:37:13Z,42.805,6.029,13.2990,4.60009,2470.45,2021-10-16T08:38:37Z
2021-10-16T06:40:17Z,42.805,6.029,13.2987,4.60008,2470.437,2021-10-16T08:41:40Z
2021-10-16T06:43:20Z,42.805,6.029,13.2991,4.60009,2470.46,2021-10-16T08:44:43Z
2021-10-16T06:46:23Z,42.805,6.029,13.2990,4.60009,2470.45,2021-10-16T08:47:46Z
2021-10-16T06:49:26Z,42.805,6.029,13.2986,4.60010,2470.437,2021-10-16T08:50:49Z
2021-10-16T06:52:29Z,42.805,6.029,13.2987,4.60010,2470.45,2021-10-16T08:53:52Z
2021-10-16T06:55:32Z,42.805,6.029,13.2987,4.60011,2470.437,2021-10-16T08:56:56Z
2021-10-16T06:58:35Z,42.805,6.029,13.2989,4.60011,2470.437,2021-10-16T08:59:59Z
2021-10-16T07:01:38Z,42.805,6.029,13.2989,4.60006,2470.413,2021-10-16T09:03:02Z
2021-10-16T07:04:41Z,42.805,6.029,13.2988,4.60006,2470.437,2021-10-16T09:06:05Z
2021-10-16T07:07:45Z,42.805,6.029,13.2991,4.60008,2470.45,2021-10-16T09:09:08Z
2021-10-16T07:10:48Z,42.805,6.029,13.2989,4.60009,2470.45,2021-10-16T09:12:11Z
2021-10-16T07:13:51Z,42.805,6.029,13.2988,4.60010,2470.413,2021-10-16T09:15:14Z
2021-10-16T07:16:54Z,42.805,6.029,13.2992,4.60012,2470.474,2021-10-16T09:18:17Z
2021-10-16T07:19:57Z,42.805,6.029,13.2990,4.60013,2470.437,2021-10-16T09:21:21Z
2021-10-16T07:23:00Z,42.805,6.029,13.2991,4.60011,2470.46,2021-10-16T09:24:24Z
2021-10-16T07:26:03Z,42.805,6.029,13.2986,4.60014,2470.45,2021-10-16T09:27:27Z
2021-10-16T07:29:06Z,42.805,6.029,13.2990,4.60013,2470.46,2021-10-16T09:30:30Z
2021-10-16T07:32:10Z,42.805,6.029,13.2988,4.60011,2470.413,2021-10-16T09:33:33Z
2021-10-16T07:35:13Z,42.805,6.029,13.2986,4.60008,2470.45,2021-10-16T09:36:36Z
2021-10-16T07:38:16Z,42.805,6.029,13.2991,4.60010,2470.437,2021-10-16T09:39:39Z
2021-10-16T07:41:19Z,42.805,6.029,13.2990,4.60011,2470.413,2021-10-16T09:42:42Z
2021-10-16T07:44:22Z,42.805,6.029,13.2989,4.60009,2470.39,2021-10-16T09:45:46Z
2021-10-16T07:47:25Z,42.805,6.029,13.2993,4.60011,2470.427,2021-10-16T09:48:49Z
2021-10-16T07:50:28Z,42.805,6.029,13.2991,4.60007,2470.427,2021-10-16T09:51:52Z
2021-10-16T07:53:31Z,42.805,6.029,13.2989,4.60013,2470.437,2021-10-16T09:54:55Z
2021-10-16T07:56:35Z,42.805,6.029,13.2986,4.60012,2470.427,2021-10-16T09:57:58Z
2021-10-16T07:59:38Z,42.805,6.029,13.2989,4.60011,2470.427,2021-10-16T10:01:01Z
2021-10-16T08:02:41Z,42.805,6.029,13.2988,4.60010,2470.427,2021-10-16T10:04:04Z
2021-10-16T08:05:44Z,42.805,6.029,13.2990,4.60008,2470.45,2021-10-16T10:07:07Z
2021-10-16T08:08:47Z,42.805,6.029,13.2989,4.60009,2470.413,2021-10-16T10:10:11Z
2021-10-16T08:11:50Z,42.805,6.029,13.2990,4.60013,2470.413,2021-10-16T10:13:14Z
2021-10-16T08:14:53Z,42.805,6.029,13.2991,4.60011,2470.437,2021-10-16T10:16:17Z
2021-10-16T08:17:56Z,42.805,6.029,13.2991,4.60016,2470.413,2021-10-16T10:19:20Z
2021-10-16T08:21:00Z,42.805,6.029,13.2987,4.60014,2470.437,2021-10-16T10:22:23Z
2021-10-16T08:24:03Z,42.805,6.029,13.2991,4.60010,2470.46,2021-10-16T10:25:26Z
2021-10-16T08:27:06Z,42.805,6.029,13.2988,4.60010,2470.427,2021-10-16T10:28:29Z
2021-10-16T08:30:09Z,42.805,6.029,13.2989,4.60009,2470.39,2021-10-16T10:31:32Z
2021-10-16T08:33:12Z,42.805,6.029,13.2987,4.60013,2470.413,2021-10-16T10:34:36Z
2021-10-16T08:36:15Z,42.805,6.029,13.2990,4.60011,2470.404,2021-10-16T10:37:39Z
2021-10-16T08:39:18Z,42.805,6.029,13.2991,4.60011,2470.39,2021-10-16T10:40:42Z
2021-10-16T08:42:21Z,42.805,6.029,13.2987,4.60009,2470.413,2021-10-16T10:43:45Z
2021-10-16T08:45:25Z,42.805,6.029,13.2984,4.60009,2470.413,2021-10-16T10:46:48Z
2021-10-16T08:48:28Z,42.805,6.029,13.2990,4.60010,2470.427,2021-10-16T10:49:51Z
2021-10-16T08:51:31Z,42.805,6.029,13.2991,4.60011,2470.437,2021-10-16T10:52:54Z
2021-10-16T08:54:34Z,42.805,6.029,13.2990,4.60009,2470.39,2021-10-16T10:55:58Z
2021-10-16T08:57:37Z,42.805,6.029,13.2988,4.60009,2470.427,2021-10-16T10:59:01Z
2021-10-16T09:00:40Z,42.805,6.029,13.2990,4.60011,2470.413,2021-10-16T11:02:04Z
2021-10-16T09:03:43Z,42.805,6.029,13.2990,4.60011,2470.427,2021-10-16T11:05:07Z
2021-10-16T09:06:47Z,42.805,6.029,13.2988,4.60012,2470.45,2021-10-16T11:08:10Z
2021-10-16T09:09:50Z,42.805,6.029,13.2988,4.60010,2470.45,2021-10-16T11:11:13Z
2021-10-16T09:12:53Z,42.805,6.029,13.2990,4.60010,2470.427,2021-10-16T11:14:16Z
2021-10-16T09:15:56Z,42.805,6.029,13.2989,4.60010,2470.427,2021-10-16T11:17:19Z
2021-10-16T09:18:59Z,42.805,6.029,13.2989,4.60009,2470.427,2021-10-16T11:20:23Z
2021-10-16T09:22:02Z,42.805,6.029,13.2989,4.60008,2470.427,2021-10-16T11:23:26Z
2021-10-16T09:25:05Z,42.805,6.029,13.2986,4.60014,2470.39,2021-10-16T11:26:29Z
2021-10-16T09:28:08Z,42.805,6.029,13.2992,4.60011,2470.376,2021-10-16T11:29:32Z
2021-10-16T09:31:12Z,42.805,6.029,13.2987,4.60011,2470.437,2021-10-16T11:32:35Z
2021-10-16T09:34:15Z,42.805,6.029,13.2986,4.60010,2470.39,2021-10-16T11:35:38Z
2021-10-16T09:37:18Z,42.805,6.029,13.2990,4.60009,2470.437,2021-10-16T11:38:41Z
2021-10-16T09:40:21Z,42.805,6.029,13.2988,4.60011,2470.413,2021-10-16T11:41:44Z
2021-10-16T09:43:24Z,42.805,6.029,13.2991,4.60010,2470.427,2021-10-16T11:44:48Z
2021-10-16T09:46:27Z,42.805,6.029,13.2987,4.60011,2470.404,2021-10-16T11:47:51Z
2021-10-16T09:49:30Z,42.805,6.029,13.2987,4.60012,2470.39,2021-10-16T11:50:54Z
2021-10-16T09:52:33Z,42.805,6.029,13.2989,4.60010,2470.366,2021-10-16T11:53:57Z
2021-10-16T09:55:37Z,42.805,6.029,13.2987,4.60008,2470.39,2021-10-16T11:57:00Z
2021-10-16T09:58:40Z,42.805,6.029,13.2989,4.60011,2470.404,2021-10-16T12:00:03Z
2021-10-16T10:01:43Z,42.805,6.029,13.2994,4.60013,2470.413,2021-10-16T12:03:06Z
2021-10-16T10:04:46Z,42.805,6.029,13.2992,4.60014,2470.404,2021-10-16T12:06:09Z
2021-10-16T10:07:49Z,42.805,6.029,13.2986,4.60009,2470.39,2021-10-16T12:09:13Z
2021-10-16T10:10:52Z,42.805,6.029,13.2990,4.60007,2470.39,2021-10-16T12:12:16Z
2021-10-16T10:13:55Z,42.805,6.029,13.2990,4.60009,2470.404,2021-10-16T12:15:19Z
2021-10-16T10:16:58Z,42.805,6.029,13.2988,4.60006,2470.404,2021-10-16T12:18:22Z
2021-10-16T10:20:02Z,42.805,6.029,13.2990,4.60010,2470.366,2021-10-16T12:21:25Z
2021-10-16T10:23:05Z,42.805,6.029,13.2987,4.60009,2470.39,2021-10-16T12:24:28Z
2021-10-16T10:26:08Z,42.805,6.029,13.2990,4.60006,2470.39,2021-10-16T12:27:31Z
2021-10-16T10:29:11Z,42.805,6.029,13.2986,4.60010,2470.437,2021-10-16T12:30:35Z
2021-10-16T10:32:14Z,42.805,6.029,13.2992,4.60009,2470.404,2021-10-16T12:33:38Z
2021-10-16T10:35:17Z,42.805,6.029,13.2985,4.60009,2470.39,2021-10-16T12:36:41Z
2021-10-16T10:38:20Z,42.805,6.029,13.2987,4.60011,2470.39,2021-10-16T12:39:44Z
2021-10-16T10:41:23Z,42.805,6.029,13.2990,4.60008,2470.39,2021-10-16T12:42:47Z
2021-10-16T10:44:27Z,42.805,6.029,13.2986,4.60008,2470.39,2021-10-16T12:45:50Z
2021-10-16T10:47:30Z,42.805,6.029,13.2988,4.60010,2470.45,2021-10-16T12:48:53Z
2021-10-16T10:50:33Z,42.805,6.029,13.2989,4.60009,2470.39,2021-10-16T12:51:56Z
2021-10-16T10:53:36Z,42.805,6.029,13.2985,4.60007,2470.366,2021-10-16T12:55:00Z
2021-10-16T10:56:39Z,42.805,6.029,13.2987,4.60007,2470.427,2021-10-16T12:58:03Z
2021-10-16T10:59:42Z,42.805,6.029,13.2990,4.60007,2470.413,2021-10-16T13:01:06Z
2021-10-16T11:02:45Z,42.805,6.029,13.2990,4.60007,2470.39,2021-10-16T13:04:09Z
2021-10-16T11:05:48Z,42.805,6.029,13.2990,4.60010,2470.404,2021-10-16T13:07:12Z
2021-10-16T11:08:52Z,42.805,6.029,13.2989,4.60006,2470.404,2021-10-16T13:10:15Z
2021-10-16T11:11:55Z,42.805,6.029,13.2988,4.60008,2470.427,2021-10-16T13:13:18Z
2021-10-16T11:14:58Z,42.805,6.029,13.2989,4.60007,2470.404,2021-10-16T13:16:21Z
2021-10-16T11:18:01Z,42.805,6.029,13.2983,4.60008,2470.413,2021-10-16T13:19:25Z
2021-10-16T11:21:04Z,42.805,6.029,13.2989,4.60007,2470.413,2021-10-16T13:22:28Z
2021-10-16T11:24:07Z,42.805,6.029,13.2986,4.60004,2470.38,2021-10-16T13:25:31Z
2021-10-16T11:27:10Z,42.805,6.029,13.2989,4.60006,2470.427,2021-10-16T13:28:34Z
2021-10-16T11:30:14Z,42.805,6.029,13.2984,4.60005,2470.413,2021-10-16T13:31:37Z
2021-10-16T11:33:17Z,42.805,6.029,13.2988,4.60005,2470.413,2021-10-16T13:34:40Z
2021-10-16T11:36:20Z,42.805,6.029,13.2987,4.60005,2470.413,2021-10-16T13:37:43Z
2021-10-16T11:39:23Z,42.805,6.029,13.2990,4.60005,2470.39,2021-10-16T13:40:46Z
2021-10-16T11:42:26Z,42.805,6.029,13.2989,4.60008,2470.413,2021-10-16T13:43:50Z
2021-10-16T11:45:29Z,42.805,6.029,13.2986,4.60005,2470.427,2021-10-16T13:46:53Z
2021-10-16T11:48:32Z,42.805,6.029,13.2987,4.60006,2470.427,2021-10-16T13:49:56Z
2021-10-16T11:51:35Z,42.805,6.029,13.2989,4.60005,2470.404,2021-10-16T13:52:59Z
2021-10-16T11:54:38Z,42.805,6.029,13.2984,4.60006,2470.413,2021-10-16T13:56:02Z
2021-10-16T11:57:42Z,42.805,6.029,13.2992,4.60005,2470.427,2021-10-16T13:59:05Z
2021-10-16T12:00:45Z,42.805,6.029,13.2993,4.60009,2470.427,2021-10-16T14:02:08Z
2021-10-16T12:03:48Z,42.805,6.029,13.2990,4.60007,2470.427,2021-10-16T14:05:11Z
2021-10-16T12:06:51Z,42.805,6.029,13.2988,4.60009,2470.45,2021-10-16T14:08:15Z
2021-10-16T12:09:54Z,42.805,6.029,13.2989,4.60005,2470.427,2021-10-16T14:11:18Z
2021-10-16T12:12:57Z,42.805,6.029,13.2991,4.60006,2470.437,2021-10-16T14:14:21Z
2021-10-16T12:16:00Z,42.805,6.029,13.2991,4.60006,2470.474,2021-10-16T14:17:24Z
2021-10-16T12:19:04Z,42.805,6.029,13.2990,4.60009,2470.45,2021-10-16T14:20:27Z
2021-10-16T12:22:07Z,42.805,6.029,13.2989,4.60006,2470.46,2021-10-16T14:23:30Z
2021-10-16T12:25:10Z,42.805,6.029,13.2990,4.60007,2470.427,2021-10-16T14:26:33Z
2021-10-16T12:28:13Z,42.805,6.029,13.2991,4.60008,2470.46,2021-10-16T14:29:36Z
2021-10-16T12:31:16Z,42.805,6.029,13.2986,4.60005,2470.413,2021-10-16T14:32:40Z
2021-10-16T12:34:19Z,42.805,6.029,13.2986,4.60005,2470.427,2021-10-16T14:35:43Z
2021-10-16T12:37:22Z,42.805,6.029,13.2983,4.60005,2470.413,2021-10-16T14:38:46Z
2021-10-16T12:40:25Z,42.805,6.029,13.2990,4.60007,2470.45,2021-10-16T14:41:49Z
2021-10-16T12:43:29Z,42.805,6.029,13.2989,4.60006,2470.423,2021-10-16T14:44:52Z
2021-10-16T12:46:32Z,42.805,6.029,13.2988,4.60008,2470.46,2021-10-16T14:47:55Z
2021-10-16T12:49:35Z,42.805,6.029,13.2985,4.60005,2470.483,2021-10-16T14:50:58Z
2021-10-16T12:52:38Z,42.805,6.029,13.2992,4.60007,2470.446,2021-10-16T14:54:01Z
2021-10-16T12:55:41Z,42.805,6.029,13.2986,4.60006,2470.46,2021-10-16T14:57:05Z
2021-10-16T12:58:44Z,42.805,6.029,13.2986,4.60009,2470.46,2021-10-16T15:00:08Z
2021-10-16T13:01:47Z,42.805,6.029,13.2988,4.60006,2470.46,2021-10-16T15:03:11Z
2021-10-16T13:04:50Z,42.805,6.029,13.2988,4.60005,2470.483,2021-10-16T15:06:14Z
2021-10-16T13:07:54Z,42.805,6.029,13.2991,4.60009,2470.46,2021-10-16T15:09:17Z
2021-10-16T13:10:57Z,42.805,6.029,13.2988,4.60006,2470.474,2021-10-16T15:12:20Z
2021-10-16T13:14:00Z,42.805,6.029,13.2990,4.60006,2470.47,2021-10-16T15:15:23Z
2021-10-16T13:17:03Z,42.805,6.029,13.2986,4.60005,2470.46,2021-10-16T15:18:26Z
2021-10-16T13:20:06Z,42.805,6.029,13.2990,4.60005,2470.474,2021-10-16T15:21:30Z
2021-10-16T13:23:09Z,42.805,6.029,13.2991,4.60005,2470.497,2021-10-16T15:24:33Z
2021-10-16T13:26:12Z,42.805,6.029,13.2984,4.60004,2470.497,2021-10-16T15:27:36Z
2021-10-16T13:29:15Z,42.805,6.029,13.2987,4.60005,2470.483,2021-10-16T15:30:39Z
2021-10-16T13:32:19Z,42.805,6.029,13.2987,4.60005,2470.483,2021-10-16T15:33:42Z
2021-10-16T13:35:22Z,42.805,6.029,13.2989,4.60005,2470.507,2021-10-16T15:36:45Z
2021-10-16T13:38:25Z,42.805,6.029,13.2986,4.60006,2470.497,2021-10-16T15:39:48Z
2021-10-16T13:41:28Z,42.805,6.029,13.2990,4.60011,2470.483,2021-10-16T15:42:51Z
2021-10-16T13:44:31Z,42.805,6.029,13.2988,4.60007,2470.507,2021-10-16T15:45:55Z
2021-10-16T13:47:34Z,42.805,6.029,13.2991,4.60005,2470.483,2021-10-16T15:48:58Z
2021-10-16T13:50:37Z,42.805,6.029,13.2986,4.60006,2470.507,2021-10-16T15:52:01Z
2021-10-16T13:53:40Z,42.805,6.029,13.2989,4.60006,2470.507,2021-10-16T15:55:04Z
2021-10-16T13:56:44Z,42.805,6.029,13.2990,4.60005,2470.483,2021-10-16T15:58:07Z
2021-10-16T13:59:47Z,42.805,6.029,13.2987,4.60006,2470.483,2021-10-16T16:01:10Z
2021-10-16T14:02:50Z,42.805,6.029,13.2988,4.60006,2470.507,2021-10-16T16:04:13Z
2021-10-16T14:05:53Z,42.805,6.029,13.2988,4.60009,2470.52,2021-10-16T16:07:17Z
2021-10-16T14:08:56Z,42.805,6.029,13.2990,4.60008,2470.544,2021-10-16T16:10:20Z
2021-10-16T14:11:59Z,42.805,6.029,13.2990,4.60006,2470.507,2021-10-16T16:13:23Z
2021-10-16T14:15:02Z,42.805,6.029,13.2986,4.60006,2470.52,2021-10-16T16:16:26Z
2021-10-16T14:18:05Z,42.805,6.029,13.2987,4.60007,2470.53,2021-10-16T16:19:29Z
2021-10-16T14:21:09Z,42.805,6.029,13.2993,4.60006,2470.53,2021-10-16T16:22:32Z
2021-10-16T14:24:12Z,42.805,6.029,13.2991,4.60009,2470.52,2021-10-16T16:25:35Z
2021-10-16T14:27:15Z,42.805,6.029,13.2990,4.60005,2470.53,2021-10-16T16:28:38Z
2021-10-16T14:30:18Z,42.805,6.029,13.2985,4.60005,2470.544,2021-10-16T16:31:42Z
2021-10-16T14:33:21Z,42.805,6.029,13.2988,4.60005,2470.53,2021-10-16T16:34:45Z
2021-10-16T14:36:24Z,42.805,6.029,13.2990,4.60007,2470.544,2021-10-16T16:37:48Z
2021-10-16T14:39:27Z,42.805,6.029,13.2991,4.60006,2470.567,2021-10-16T16:40:51Z
2021-10-16T14:42:30Z,42.805,6.029,13.2990,4.60004,2470.544,2021-10-16T16:43:54Z
2021-10-16T14:45:34Z,42.805,6.029,13.2987,4.60006,2470.544,2021-10-16T16:46:57Z
2021-10-16T14:48:37Z,42.805,6.029,13.2989,4.60003,2470.53,2021-10-16T16:50:00Z
2021-10-16T14:51:40Z,42.805,6.029,13.2993,4.60005,2470.567,2021-10-16T16:53:03Z
2021-10-16T14:54:43Z,42.805,6.029,13.2989,4.60006,2470.544,2021-10-16T16:56:07Z
2021-10-16T14:57:46Z,42.805,6.029,13.2990,4.60007,2470.553,2021-10-16T16:59:10Z
2021-10-16T15:00:49Z,42.805,6.029,13.2989,4.60009,2470.53,2021-10-16T17:02:13Z